My Profile
  1. Member Settings
  2. My Devices
  3. Sign Out
        More Settings
      Elev 630 ft, 45.733 °N 87.062 °W

      Escanaba, MI

      Summary

      Temperature (°F)MaxAverageMin
      Max Temperature8475.2965
      Avg Temperature72.6765.9756.54
      Min Temperature675843
      Precipitation (in)MaxAverageMinSum
      Precipitation2.720.1705.59
      Dew Point (°F)MaxAverageMin
      Dew Point68.6459.948.4
      Wind (mph)MaxAverageMin
      Wind26148
      Gust Wind4021.2316
      Sea Level Pressure (in)MaxAverageMin
      Sea Level Pressure29.4829.329.02

      Daily Observations

      DateTemp High/LowDew Pt High/LowHumidityWindMax WindWind GustPressurePrecip.Condition
      8/1/2020 77 °F / 54 °F 65 °F / 54 °F 82 % 13 mph - 29.28 in 0 in
      8/2/2020 68 °F / 57 °F 61 °F / 51 °F 83 % 15 mph - 29.29 in 0 in
      8/3/2020 67 °F / 51 °F 52 °F / 46 °F 71 % 13 mph - 29.43 in 0 in
      8/4/2020 68 °F / 48 °F 54 °F / 45 °F 72 % 14 mph - 29.43 in 0 in
      8/5/2020 72 °F / 43 °F 60 °F / 41 °F 78 % 14 mph - 29.4 in 0 in
      8/6/2020 76 °F / 52 °F 63 °F / 51 °F 74 % 13 mph - 29.44 in 0 in
      8/7/2020 76 °F / 51 °F 63 °F / 51 °F 75 % 14 mph - 29.47 in 0 in
      8/8/2020 74 °F / 64 °F 69 °F / 59 °F 91 % 20 mph - 29.35 in 0.95 in
      8/9/2020 82 °F / 63 °F 73 °F / 63 °F 94 % 14 mph - 29.31 in 0 in
      8/10/2020 79 °F / 58 °F 72 °F / 55 °F 89 % 14 mph - 29.18 in 0 in
      8/11/2020 82 °F / 53 °F 62 °F / 48 °F 68 % 14 mph - 29.26 in 0 in
      8/12/2020 79 °F / 63 °F 68 °F / 57 °F 73 % 10 mph - 29.42 in 0 in
      8/13/2020 78 °F / 61 °F 69 °F / 59 °F 87 % 8 mph - 29.48 in 0.02 in
      8/14/2020 77 °F / 55 °F 69 °F / 55 °F 88 % 13 mph - 29.41 in 0 in
      8/15/2020 78 °F / 61 °F 68 °F / 53 °F 77 % 13 mph - 29.28 in 0 in
      8/16/2020 75 °F / 54 °F 64 °F / 53 °F 82 % 26 mph - 29.31 in 0.36 in
      8/17/2020 75 °F / 54 °F 59 °F / 50 °F 85 % 10 mph - 29.33 in 0 in
      8/18/2020 70 °F / 51 °F 53 °F / 47 °F 68 % 13 mph - 29.42 in 0 in
      8/19/2020 72 °F / 54 °F 65 °F / 51 °F 81 % 13 mph - 29.39 in 0.15 in
      8/20/2020 82 °F / 67 °F 68 °F / 60 °F 76 % 15 mph - 29.21 in 0 in
      8/21/2020 75 °F / 62 °F 70 °F / 62 °F 95 % 10 mph - 29.23 in 0.08 in
      8/22/2020 77 °F / 63 °F 69 °F / 62 °F 92 % 12 mph - 29.21 in 0.01 in
      8/23/2020 77 °F / 61 °F 70 °F / 59 °F 94 % 8 mph - 29.27 in 0 in
      8/24/2020 84 °F / 66 °F 73 °F / 64 °F 91 % 13 mph - 29.26 in 0.34 in
      8/25/2020 82 °F / 59 °F 64 °F / 57 °F 82 % 12 mph - 29.36 in 0 in
      8/26/2020 79 °F / 64 °F 73 °F / 60 °F 89 % 15 mph - 29.23 in 2.72 in
      8/27/2020 76 °F / 66 °F 68 °F / 61 °F 82 % 10 mph - 29.17 in 0 in
      8/28/2020 69 °F / 60 °F 66 °F / 59 °F 88 % 22 mph - 29.07 in 0.95 in
      8/29/2020 66 °F / 55 °F 60 °F / 51 °F 83 % 20 mph - 29.06 in 0.01 in
      8/30/2020 65 °F / 50 °F 55 °F / 49 °F 83 % 12 mph - 29.28 in 0 in
      8/31/2020 72 °F / 54 °F 65 °F / 53 °F 87 % 18 mph - 29.15 in 0 in
      essentialaccessibility.com
      We recognize our responsibility to use data and technology for good. We may use or share your data with our data vendors. Take control of your data.
      Glossary